Location: Nelson
(47.1935°N, 121.0537°W)
Time: 07:27:08
(UTC+00:00)

BlueWalker 3 - Pass Details

Date: 08 December 2022
Orbit: 499 x 517 km, 53.2° (Epoch: 27 January)

Event Time Altitude Azimuth Distance (km) Brightness Sun altitude
Rises 03:04:03 0° 297° (WNW) 2,630 6.5 -27.8°
Reaches altitude 10° 03:06:19 10° 291° (WNW) 1,736 5.4 -28.2°
Enters shadow 03:08:40 31° 270° (W) 914 3.8 -28.6°
